Location: Goudex
(43.3760°N, 0.9543°E)
Time: 19:03:35
(UTC+00:00)

ISS - Visible Passes

Search period start: 07 March 2021 00:00
Search period end: 17 March 2021 00:00
Orbit: 417 x 422 km, 51.6° (Epoch: 07 March)

Date Brightness Start Highest point End Pass type
(mag) Time Alt. Az. Time Alt. Az. Time Alt. Az.
07 Mar -1.2 03:58:45 19° NNE 03:58:45 19° NNE 04:00:29 10° ENE visible
07 Mar -2.9 05:31:59 10° NW 05:35:16 48° NNE 05:38:32 10° ESE visible
08 Mar -2.4 04:46:09 22° NNW 04:47:41 34° NNE 04:50:48 10° E visible
09 Mar -1.7 04:00:40 25° NE 04:00:40 25° NE 04:03:00 10° ENE visible
09 Mar -3.8 05:33:46 10° WNW 05:37:07 70° SW 05:40:27 10° SE visible
10 Mar -3.7 04:48:16 33° NW 04:49:38 74° NNE 04:52:59 10° ESE visible
11 Mar -2.2 04:02:59 36° ENE 04:02:59 36° ENE 04:05:21 10° ESE visible
11 Mar -2.5 05:35:58 10° W 05:38:44 25° SW 05:41:33 10° SSE visible
12 Mar -3.3 04:50:51 38° WSW 04:51:21 41° SW 04:54:32 10° SSE visible
13 Mar -1.7 04:05:55 22° SE 04:05:55 22° SE 04:07:15 10° SE visible
14 Mar -1.5 04:54:12 13° SSW 04:54:12 13° SSW 04:54:53 10° S visible
16 Mar -1.1 19:58:43 10° SSW 19:59:01 12° SSW 19:59:01 12° SSW visible
